www.pogodaiklimat.ru

Погода и климат >> Архив погоды >> Канада >> Stefansson Island


ПОГОДА в Stefansson Island

  • Прогноз погоды в Stefansson Island
  • Монитор погоды в Stefansson Island
  • Климат города

АРХИВ ПОГОДЫ в Stefansson Island

Время (UTC), дата Ветер
(напр.,м/с)
 
Видим.   Явления Облачность Т
(С)
Тd
(С)
f
(%)
Тe
(С)
Тes
(С)
Комфортность P
(гПа)
Po
(гПа)
Тmin
(С)
Tmax
(С)
R
(мм)
R24
(мм)
S
(см)
21 19.04 В 3 н/о н/о -22.7 -28.1 61 -31 -31 опасность
обморожения
1020.2 1018.7
00 20.04 ЮВ 1 н/о н/о -22.6 -28.4 59 -26 -26 1021.9 1020.4 -33.5 -21.0
03 20.04 ЮВ 1 н/о н/о -29.7 -33.6 69 -31 -31 опасность
обморожения
1023.4 1021.9 0.2
06 20.04 С 1 н/о н/о -31.6 -34.3 77 -36 -36 опасность
обморожения
1024.3 1022.8 -34.2 -21.0 0.2
09 20.04 С 1 н/о н/о -34.0 -37.5 70 -35 -35 опасность
обморожения
1026.0 1024.5
12 20.04 С 1 н/о н/о -32.6 -36.0 72 -34 -34 опасность
обморожения
1027.8 1026.3 -35.9 -21.0 62
15 20.04 С 1 н/о н/о -28.8 -33.1 66 -33 -33 опасность
обморожения
1029.4 1027.8
18 20.04 СЗ 2 н/о н/о -24.8 -30.5 59 -30 -30 1030.8 1029.2 -35.9 -24.6
21 20.04 З 3 н/о н/о -23.7 -28.2 66 -32 -32 опасность
обморожения
1032.1 1030.5
00 21.04 З 4 н/о н/о -23.9 -28.4 66 -33 -33 опасность
обморожения
1033.2 1031.6 -35.9 -23.0
03 21.04 З 5 н/о н/о -25.4 -28.6 74 -37 -37 опасность
обморожения
1033.7 1032.1
06 21.04 З 5 н/о н/о -27.7 -30.5 77 -39 -39 опасность
обморожения
1034.1 1032.5 -35.9 -23.0
09 21.04 З 4 н/о н/о -28.6 -31.5 76 -40 -40 опасность
обморожения
1034.8 1033.2
12 21.04 З 5 н/о н/о -28.1 -31.3 74 -40 -40 опасность
обморожения
1034.7 1033.1 -29.4 -23.0 63
15 21.04 З 5 н/о н/о -25.0 -29.2 68 -36 -36 опасность
обморожения
1034.1 1032.6
18 21.04 З 6 н/о н/о -20.8 -24.6 71 -32 -32 опасность
обморожения
1033.2 1031.7 -29.4 -20.8
21 21.04 СЗ 6 н/о н/о -18.1 -21.3 76 -28 -28 1032.8 1031.3
00 22.04 СЗ 6 н/о н/о -18.0 -20.3 82 -29 -29 1032.2 1030.7 -29.4 -17.9
03 22.04 С 4 н/о н/о -18.4 -20.6 83 -27 -27 1032.0 1030.5
06 22.04 СВ 2 н/о н/о -19.1 -21.2 83 -25 -25 1032.4 1030.9 -29.4 -17.9
09 22.04 СВ 3 н/о н/о -21.4 -23.9 80 -29 -29 1033.9 1032.4
12 22.04 В 1 н/о н/о -22.6 -25.5 77 -23 -23 1034.6 1033.1 -17.9 62
15 22.04 СЗ 1 н/о н/о -19.4 -23.7 69 -22 -22 1035.2 1033.7 0.2
18 22.04 С 4 н/о н/о -18.8 -23.2 68 -27 -27 1035.3 1033.8 0.2
21 22.04 С 4 н/о н/о -19.2 -22.9 72 -28 -28 1035.4 1033.9
00 23.04 СЗ 4 н/о н/о -20.7 -23.8 76 -30 -30 1035.2 1033.7 -18.4
03 23.04 СЗ 4 н/о н/о -21.6 -24.1 80 -30 -30 1034.6 1033.1
06 23.04 С 3 н/о н/о -22.0 -24.1 83 -29 -29 1034.0 1032.5
09 23.04 СЗ 3 н/о н/о -21.8 -23.9 83 -29 -29 1033.4 1031.9
12 23.04 СЗ 2 н/о н/о -21.1 -23.3 82 -27 -27 1032.5 1031.0 -22.2 62
15 23.04 З 2 н/о н/о -19.8 -23.2 74 -26 -26 1031.4 1029.9
18 23.04 З 3 н/о н/о -19.8 -23.7 71 -27 -27 1030.5 1029.0 -22.2 -19.6
21 23.04 ЮЗ 2 н/о н/о -19.1 -24.4 63 -24 -24 1029.9 1028.4
00 24.04 З 2 н/о н/о -19.8 -23.9 70 -25 -25 1028.9 1027.4 -22.0 -18.4
03 24.04 ЮВ 1 н/о н/о -20.9 -24.0 76 -22 -22 1028.2 1026.7
06 24.04 В 1 н/о н/о -21.8 -24.3 80 -25 -25 1027.6 1026.1 -22.0 -18.4
09 24.04 ЮВ 3 н/о н/о -22.3 -24.6 81 -31 -31 опасность
обморожения
1026.9 1025.4
12 24.04 Ю 3 н/о н/о -22.0 -24.8 78 -29 -29 1026.6 1025.1 -22.3 -18.4 63
15 24.04 Ю 4 н/о н/о -20.9 -24.6 72 -30 -30 1025.8 1024.3
18 24.04 ЮВ 4 н/о н/о -20.7 -25.4 66 -30 -30 1024.3 1022.8 -22.3 -20.0
21 24.04 Ю 5 н/о н/о -20.0 -25.4 62 -30 -30 1023.4 1021.9
00 25.04 ЮВ 4 н/о н/о -21.7 -26.3 66 -31 -31 опасность
обморожения
1021.7 1020.2 -22.3 -19.7
03 25.04 ЮВ 6 н/о н/о -24.8 -28.0 75 -37 -37 опасность
обморожения
1019.6 1018.1
06 25.04 Ю 6 н/о н/о -24.7 -27.3 79 -37 -37 опасность
обморожения
1018.4 1016.9 -26.3 -19.7 6
09 25.04 ЮВ 4 н/о н/о -25.9 -28.6 78 -36 -36 опасность
обморожения
1017.3 1015.8
12 25.04 ЮВ 4 н/о н/о -25.3 -28.3 76 -36 -36 опасность
обморожения
1015.6 1014.1 -26.8 -19.7 62
15 25.04 В 3 н/о н/о -23.2 -26.7 73 -32 -32 опасность
обморожения
1015.2 1013.7
18 25.04 Ю 10 н/о н/о -20.6 -22.8 82 -35 -35 опасность
обморожения
1014.3 1012.8 -26.8 -20.6
21 25.04 ЮВ 9 н/о н/о -20.2 -22.2 84 -33 -33 опасность
обморожения
1014.1 1012.6
00 26.04 ЮВ 7 н/о н/о -19.5 -21.6 83 -31 -31 опасность
обморожения
1013.5 1012.0 -26.8 -19.0
03 26.04 ЮВ 8 н/о н/о -21.1 -23.3 82 -34 -34 опасность
обморожения
1013.0 1011.5
06 26.04 В 4 н/о н/о -23.9 -26.3 80 -33 -33 опасность
обморожения
1013.1 1011.6 -26.8 -19.0 18
09 26.04 В 2 н/о н/о -26.3 -29.0 78 -32 -32 опасность
обморожения
1013.1 1011.6
12 26.04 ЮВ 3 н/о н/о -27.2 -29.9 78 -36 -36 опасность
обморожения
1012.4 1010.9 -27.8 -19.0 61
15 26.04 В 4 н/о н/о -24.4 -26.7 81 -34 -34 опасность
обморожения
1012.2 1010.7
18 26.04 ЮВ 5 н/о н/о -20.3 -22.6 82 -30 -30 1012.3 1010.8 -27.8 -19.8

 

Местоположение метеостанции Stefansson Island (Канада): широта 73.77 долгота -105.20 высота над уровнем моря 11 м.

В архиве по умолчанию представлена погода в Stefansson Island за последнюю неделю. Архивные данные за месяц целиком и за предыдущие месяцы, начиная с января 2011 года, Вы можете получить, выбрав интересующий диапазон дат из раскрывающегося списка и нажав кнопку "Ввод!".

Внимание! Время в таблицах - всемирное. Для получения местного времени необходимо прибавить поправку, которая в Stefansson Island равна -7 ч.

Смотрите также архив погоды в соседних городах и на ближайших метеорологических станциях:

Погода в Resolute Airport (Канада) (326 км)
Погода в Resolute Cs (Канада) (326 км)
Погода в Aulvik Ntl Park (Канада) (453 км)
Погода в Mould Bay Cs (Канада) (488 км)
Погода в Mould Bay, N. W. T. (Канада) (488 км)
Погода в Cambridge Bay Gsn (Канада) (519 км)
Погода в Cambridge Bay Arpt (Канада) (519 км)
Погода в Cape Peel West (Канада) (535 км)
Погода в Holman (Канада) (542 км)
Погода в Isachsen (aut) (Канада) (559 км)

Пояснения к столбцам:

Ветер - указаны скорость ветра в м/с - средняя за 10 мин, порывы в срок и между сроками (в фигурных скобках) и направление, откуда дует ветер: С - северный, СВ - северо-восточный, В - восточный, ЮВ - юго-восточный, Ю - южный, ЮЗ - юго-западный, З - западный, СЗ - северо-западный.
Видимость - горизонтальная дальность видимости в метрах или километрах. При видимости от 1 до 10 км при отсутствии осадков обычно наблюдается дымка, при ухудшении видимости до 1 км и менее - туман. В сухую погоду видимость может ухудшаться дымом, пылью или мглою.
Явления - указаны атмосферные явления, наблюдавшиеся в срок или в последний час перед сроком; фигурными скобками обозначены явления, наблюдавшиеся между сроками (за 1-3 часа до срока); квадратными скобками обозначены град или гололедные отложения с указанием их диаметра в мм.
Облачность - указаны через наклонную черту общая и нижняя облачность в баллах и высота нижней границы облаков в метрах; квадратными скобками обозначены формы облаков: Ci - перистые, Cs - перисто-слоистые, Cc - перисто-кучевые, Ac - высококучевые, As - высокослоистые, Sc - слоисто-кучевые, Ns - слоисто-дождевые, Cu - кучевые, Cb - кучево-дождевые. Подробнее классификацию облаков см. в Атласе облаков (PDF).
T - Температура воздуха - температура, измеренная на высоте 2 м над землей.
Td - Температура точки росы - температура, при понижении до которой содержащийся в воздухе водяной пар достигнет насыщения.
f - Относительная влажность воздуха - влажноcть воздуха, измеренная на высоте 2 м над землей.
Te - Эффективная температура - температура, которую ощущает одетый по сезону человек в тени. Характеристика душности погоды. При расчете учитывается влияние влажности воздуха и скорости ветра на теплоощущения человека.
Tes - Эффективная температура на солнце - температура, которую ощущает человек, с поправкой на солнечный нагрев. Характеристика знойности погоды. Зависит от высоты солнца над горизонтом, облачности и скорости ветра. Ночью, в пасмурную погоду, а также при ветре 12 м/с и более поправка равна нулю.
P - Атмосферное давление - приведенное к уровню моря атмосферное давление.
Po - Атмосферное давление - измеренное на уровне метеостанции атмосферное давление.
Tmin - Минимальная температура - минимум температуры воздуха на высоте 2 м над землей.
Tmax - Максимальная температура - максимум температуры воздуха на высоте 2 м над землей.
R - Количество осадков - Количество выпавших осадков за период времени, мм. При наведении курсора мыши на число - период времени, за который выпало указанное количество осадков.
R24 - Количество осадков - Количество выпавших осадков за 24 часа, мм.
S - Снежный покров - Высота снежного покрова, см. При наведении курсора мыши на число - состояние снежного покрова и степень покрытия местности в баллах.